[[{"header":{"parameterUnit":"m.s-1","parameterCategory":1,"la1":30.2991,"la2":30.254,"lo1":-89.0895,"lo2":-89.0444,"dy":0.0017,"dx":0.0017,"nx":28,"ny":28,"refTime":"2024-10-04T21:00:00:Z","depth":0,"parameterNumber":2,"parameterNumberName":"U-component_of_WINDS"},"data":[0,0,0,0,0,0,0,0,0,0,0,0,0,0,0,0,0,0,0,0,0,0,0,0,0,0,0,0,0,0,0,0,0,0,0,0,0,0,0,0,0,0,0,0,0,0,0,0,0,0,0,0,0,0,0,0,0,0,-3.202,-3.2021,0,-3.2083,-3.2084,-3.2085,-3.2007,-3.2004,-3.2001,-3.1998,-3.2065,-3.207,-3.2074,0,0,0,0,0,0,0,0,0,0,0,0,0,-3.1836,-3.184,-3.202,-3.2021,-3.2022,-3.2083,-3.2084,-3.2085,-3.2007,-3.2004,-3.2,-3.1997,-3.2064,-3.2069,-3.2075,0,0,0,0,0,0,0,0,0,0,0,0,0,-3.1909,-3.1841,-3.202,-3.1991,-3.1988,-3.2083,-3.2084,-3.2085,-3.2008,-3.2004,-3.1999,-3.1995,-3.2062,-3.2069,-3.2075,-3.2203,0,0,-3.2096,-3.2099,0,0,0,0,0,0,0,0,-3.1905,-3.1916,-3.1994,-3.1993,-3.1991,-3.2033,-3.2043,-3.2125,-3.2009,-3.2001,-3.1998,-3.1993,-3.2058,-3.2065,-3.2086,-3.2206,-3.2209,-3.2096,-3.21,-3.2103,-3.2105,0,0,0,0,0,0,0,-3.19,-3.1913,-3.2045,-3.1995,-3.1993,-3.1975,-3.1981,-3.2059,-3.2053,-3.2001,-3.1996,-3.2004,-3.2056,-3.208,-3.2087,-3.221,-3.2096,-3.2102,-3.2106,-3.2109,-3.2439,-3.2444,0,0,0,0,0,0,-3.1898,-3.1909,-3.2043,-3.2047,-3.1936,-3.1982,-3.1988,-3.2024,-3.2052,-3.2052,-3.2008,-3.2,-3.2071,-3.208,-3.2089,-3.2242,-3.2103,-3.211,-3.2113,-3.2434,-3.244,-3.2445,0,0,0,0,0,0,-3.1895,-3.1911,-3.2041,-3.1977,-3.1992,-3.199,-3.203,-3.2027,-3.2051,-3.2057,-3.2056,-3.2033,-3.2068,-3.208,-3.2175,-3.2243,-3.2113,-3.2119,-3.2429,-3.2436,-3.2443,-3.2547,0,0,0,0,0,0,-3.189,-3.191,-3.1958,-3.1978,-3.1996,-3.2125,-3.2034,-3.2031,-3.2062,-3.2053,-3.208,-3.208,-3.2065,-3.2166,-3.2182,-3.225,-3.2124,-3.2423,-3.2432,-3.244,-3.2538,-3.2557,-3.2574,0,0,0,0,0,-3.1883,-3.1985,-3.1961,-3.1977,-3.2055,-3.2129,-3.2139,-3.2119,-3.2068,-3.2116,-3.212,-3.2079,-3.2233,-3.2176,-3.2194,-3.2265,-3.2418,-3.2429,-3.244,-3.253,-3.2553,-3.2573,0,0,0,0,0,0,-3.1973,-3.1987,-3.196,-3.2071,-3.21,-3.2116,-3.2176,-3.2144,-3.2188,-3.2178,-3.2152,-3.2159,-3.2261,-3.2272,-3.2209,-3.2391,-3.2317,-3.2332,-3.238,-3.2402,-3.242,-3.2416,-3.2129,0,0,0,0,0,-3.2006,-3.2064,-3.2073,-3.217,-3.2186,-3.2179,-3.221,-3.2193,-3.2221,-3.2233,-3.2244,-3.2274,-3.2329,-3.2366,-3.2417,-3.2538,-3.2544,-3.2596,-3.2614,-3.2629,-3.2642,-3.271,-3.2733,-3.248,-3.248,-3.248,0,0,-3.2074,-3.2089,-3.2127,-3.2189,-3.2209,-3.2271,-3.219,-3.2258,-3.2304,-3.2243,-3.2335,-3.2344,-3.2376,-3.2486,-3.2534,-3.2498,-3.2713,-3.2642,-3.2654,-3.266,-3.2723,-3.2747,-3.2768,-3.2488,-3.2486,-3.2485,0,0,-3.223,-3.2247,-3.233,-3.2352,-3.2382,-3.2377,-3.2397,-3.2419,-3.2422,-3.2513,-3.2469,-3.2524,-3.2619,-3.2644,-3.2669,-3.2836,-3.2801,-3.2853,-3.2948,-3.3013,-3.3033,-3.3051,-3.3112,-3.3134,-3.2866,-3.2867,-3.2867,0,-3.2312,-3.2402,-3.2377,-3.245,-3.2479,-3.2426,-3.2511,-3.2533,-3.258,-3.2602,-3.256,-3.2678,-3.2696,-3.2812,-3.2853,-3.2874,-3.2898,-3.2851,-3.3032,-3.305,-3.3066,-3.3124,-3.3147,-3.2873,-3.2872,-3.2872,-3.2871,0,-3.2502,-3.2566,-3.2629,-3.2675,-3.2711,-3.279,-3.2778,-3.2818,-3.2797,-3.2796,-3.289,-3.291,-3.2964,-3.299,-3.297,-3.3104,-3.308,-3.3036,-3.2962,-3.3097,-3.3151,-3.3173,-3.2882,-3.288,-3.2878,-3.2876,0,0,-3.2717,-3.2748,-3.2772,-3.2793,-3.2823,-3.2873,-3.2949,-3.3002,-3.3037,-3.3071,-3.3136,-3.3218,-3.3177,-3.3206,-3.3188,-3.3246,-3.3379,-3.3194,-3.3195,-3.323,-3.353,-3.3565,-3.3591,-3.3355,-3.3359,-3.3363,-3.3528,0,-3.2875,-3.3007,-3.2987,-3.3115,-3.3174,-3.3125,-3.3192,-3.3219,-3.3221,-3.3272,-3.3274,-3.3334,-3.3274,-3.3292,-3.3346,-3.3352,-3.344,-3.3339,-3.3417,-3.342,-3.3413,-3.3619,-3.3655,-3.381,-3.3549,-3.3552,-3.3555,0,-3.3077,-3.3118,-3.3252,-3.3274,-3.3298,-3.3359,-3.3406,-3.3455,-3.3485,-3.3483,-3.3515,-3.3488,-3.3566,-3.349,-3.3598,-3.353,-3.3561,-3.3568,-3.3574,-3.3582,-3.3497,-3.3634,-3.3859,-3.3883,-3.3588,-3.3585,-3.3583,0,-3.3223,-3.3311,-3.3403,-3.3422,-3.345,-3.3494,-3.3508,-3.3533,-3.3566,-3.3608,-3.363,-3.368,-3.3709,-3.3749,-3.3737,-3.3682,-3.3849,-3.3771,-3.385,-3.3851,-3.3889,-3.3887,-3.4124,-3.3906,-3.3906,-3.3905,-3.3905,0,-3.3402,-3.3487,-3.3469,-3.3526,-3.362,-3.3596,-3.369,-3.3698,-3.3721,-3.3779,-3.3739,-3.3795,-3.3774,-3.383,-3.382,-3.3913,-3.3925,-3.3927,-3.3924,-3.3931,-3.3932,-3.3952,-3.3942,-3.3911,-3.391,-3.3909,-3.3908,0,-3.3582,-3.3573,-3.3671,-3.3689,-3.3695,-3.3764,-3.378,-3.3834,-3.3832,-3.3907,-3.3923,-3.3922,-3.3985,-3.3976,-3.4046,-3.404,-3.4156,-3.4138,-3.4146,-3.4142,-3.4223,-3.4217,-3.4483,-3.4518,-3.4276,-3.4278,-3.428,0,-3.3697,-3.3761,-3.3786,-3.3822,-3.3839,-3.3898,-3.3931,-3.3911,-3.3949,-3.3988,-3.4038,-3.4097,-3.4143,-3.4246,-3.4253,-3.4306,-3.4291,-3.4381,-3.4299,-3.4306,-3.4295,-3.4292,-3.4299,-3.4398,-3.4401,-3.4403,-3.4405,0,-3.3905,-3.3898,-3.3947,-3.3997,-3.4038,-3.4076,-3.411,-3.4142,-3.4125,-3.417,-3.4233,-3.4269,-3.4341,-3.4401,-3.4452,-3.4467,-3.4435,-3.443,-3.4452,-3.4461,-3.4464,-3.4465,-3.4192,-3.4425,-3.4423,-3.4421,-3.442,-3.4419,-3.4057,-3.4112,-3.4139,-3.4196,-3.4219,-3.4253,-3.4305,-3.431,-3.4362,-3.4419,-3.4403,-3.4476,-3.4506,-3.457,-3.4591,-3.4649,-3.4616,-3.4647,-3.4655,-3.4663,-3.4674,-3.4453,-3.4658,-3.4657,-3.4657,-3.4656,-3.4656,0,-3.4264,-3.4278,-3.4331,-3.438,-3.4426,-3.439,-3.4426,-3.4467,-3.4531,-3.4561,-3.4607,-3.4682,-3.474,-3.475,-3.4806,-3.4851,-3.4837,-3.4866,-3.4864,-3.4868,-3.4699,-3.4676,-3.4876,-3.4876,-3.4876,-3.4876,-3.4876,-3.4876,-3.4376,-3.4468,-3.4464,-3.4568,-3.4582,-3.4652,-3.4677,-3.4708,-3.4731,-3.4816,-3.4864,-3.487,-3.4893,-3.495,-3.5002,-3.5004,-3.5028,-3.5063,-3.5059,-3.4902,-3.488,-3.4859,-3.4837,-3.5068,-3.5068,-3.5224,-3.5225,-3.5226]},{"header":{"parameterUnit":"m.s-1","parameterCategory":1,"la1":30.2991,"la2":30.254,"lo1":-89.0895,"lo2":-89.0444,"dy":0.0017,"dx":0.0017,"nx":28,"ny":28,"refTime":"2024-10-04T21:00:00:Z","depth":0,"parameterNumber":3,"parameterNumberName":"V-component_of_WINDS"},"data":[0,0,0,0,0,0,0,0,0,0,0,0,0,0,0,0,0,0,0,0,0,0,0,0,0,0,0,0,0,0,0,0,0,0,0,0,0,0,0,0,0,0,0,0,0,0,0,0,0,0,0,0,0,0,0,0,0,0,-2.9757,-2.9756,0,-2.9693,-2.9693,-2.9692,-2.9625,-2.9624,-2.9623,-2.9622,-2.9556,-2.9555,-2.9554,0,0,0,0,0,0,0,0,0,0,0,0,0,-2.9818,-2.9817,-2.9757,-2.9756,-2.9755,-2.9693,-2.9693,-2.9692,-2.9625,-2.9624,-2.9623,-2.9622,-2.9556,-2.9555,-2.9554,0,0,0,0,0,0,0,0,0,0,0,0,0,-2.9777,-2.9817,-2.9757,-2.9715,-2.971,-2.9694,-2.9693,-2.9691,-2.9625,-2.9624,-2.9623,-2.9621,-2.9557,-2.9555,-2.9554,-2.9574,0,0,-2.955,-2.9549,0,0,0,0,0,0,0,0,-2.9779,-2.9775,-2.9722,-2.9717,-2.9712,-2.9666,-2.969,-2.9652,-2.9626,-2.9658,-2.9622,-2.9621,-2.9593,-2.9589,-2.958,-2.9571,-2.9568,-2.955,-2.9549,-2.9548,-2.9548,0,0,0,0,0,0,0,-2.9782,-2.9777,-2.9732,-2.9721,-2.9715,-2.9698,-2.9691,-2.9682,-2.9634,-2.9655,-2.965,-2.9643,-2.9591,-2.9582,-2.9578,-2.9567,-2.955,-2.9549,-2.9548,-2.9547,-2.9569,-2.957,0,0,0,0,0,0,-2.9792,-2.978,-2.9734,-2.973,-2.9743,-2.9698,-2.969,-2.9682,-2.9634,-2.9625,-2.9644,-2.964,-2.9585,-2.958,-2.9576,-2.9595,-2.9548,-2.9547,-2.9546,-2.9568,-2.9569,-2.9571,0,0,0,0,0,0,-2.9793,-2.9788,-2.9736,-2.9753,-2.9745,-2.9699,-2.969,-2.9682,-2.9672,-2.9626,-2.9617,-2.9644,-2.9583,-2.9577,-2.9574,-2.9592,-2.9546,-2.9545,-2.9566,-2.9568,-2.957,-2.9634,0,0,0,0,0,0,-2.9795,-2.9789,-2.9797,-2.9754,-2.9745,-2.9737,-2.9691,-2.9681,-2.967,-2.9664,-2.9624,-2.9615,-2.9582,-2.9577,-2.9573,-2.9589,-2.9544,-2.9564,-2.9567,-2.9569,-2.963,-2.9638,-2.9645,0,0,0,0,0,-2.9798,-2.9817,-2.9798,-2.9792,-2.9753,-2.9738,-2.9733,-2.9694,-2.9672,-2.9679,-2.9649,-2.9617,-2.959,-2.9577,-2.9572,-2.9588,-2.9563,-2.9566,-2.9569,-2.9627,-2.9637,-2.9645,0,0,0,0,0,0,-2.9863,-2.9811,-2.9789,-2.9795,-2.9772,-2.9727,-2.9735,-2.9706,-2.9688,-2.9683,-2.9635,-2.9626,-2.9629,-2.9608,-2.9594,-2.9604,-2.9572,-2.9574,-2.9618,-2.9626,-2.9634,-2.9639,-2.9543,0,0,0,0,0,-2.9879,-2.9871,-2.9826,-2.9836,-2.9825,-2.9782,-2.9774,-2.9746,-2.972,-2.9709,-2.9679,-2.9655,-2.964,-2.9632,-2.9617,-2.9627,-2.9617,-2.9635,-2.9643,-2.9649,-2.9651,-2.9654,-2.9662,-2.9581,-2.9581,-2.9581,0,0,-2.991,-2.988,-2.9879,-2.9848,-2.9827,-2.9819,-2.9774,-2.9769,-2.9762,-2.9708,-2.9704,-2.9681,-2.965,-2.9653,-2.9653,-2.9636,-2.9671,-2.9653,-2.9658,-2.9657,-2.9658,-2.9666,-2.9673,-2.9583,-2.9583,-2.9582,0,0,-2.9963,-2.9941,-2.9946,-2.9925,-2.9894,-2.9865,-2.9866,-2.9826,-2.9808,-2.9803,-2.9762,-2.9754,-2.9731,-2.971,-2.9697,-2.9741,-2.971,-2.9737,-2.9776,-2.9779,-2.9785,-2.9791,-2.9806,-2.9813,-2.974,-2.974,-2.974,0,-3.0006,-2.9994,-2.9953,-2.9949,-2.9937,-2.9887,-2.9892,-2.9874,-2.9839,-2.9831,-2.9812,-2.9782,-2.9757,-2.9755,-2.9766,-2.9757,-2.9756,-2.9742,-2.9788,-2.9793,-2.9797,-2.9812,-2.9818,-2.9744,-2.9743,-2.9743,-2.9743,0,-3.0048,-3.0041,-3.0049,-3.0016,-3.0004,-3.0005,-2.9963,-2.9956,-2.9929,-2.9902,-2.9896,-2.9865,-2.9842,-2.9839,-2.9813,-2.9833,-2.9823,-2.9797,-2.9764,-2.9809,-2.9822,-2.9827,-2.9749,-2.9747,-2.9746,-2.9745,0,0,-3.0142,-3.0086,-3.009,-3.0074,-3.0035,-3.0027,-3.0025,-3.0003,-2.9998,-2.9975,-2.9972,-2.9953,-2.9928,-2.9913,-2.9883,-2.9886,-2.9923,-2.9859,-2.9857,-2.9872,-2.9942,-2.9963,-2.997,-2.9902,-2.9903,-2.9904,-2.9945,0,-3.0189,-3.0183,-3.0145,-3.015,-3.0142,-3.0094,-3.0092,-3.0068,-3.0042,-3.0031,-3.0002,-2.9989,-2.9958,-2.9948,-2.9949,-2.9918,-2.9936,-2.9915,-2.9898,-2.9898,-2.9908,-2.9976,-2.9998,-3.0039,-2.995,-2.995,-2.9951,0,-3.0242,-3.0223,-3.0228,-3.0187,-3.0182,-3.0182,-3.0158,-3.0148,-3.0118,-3.0099,-3.0082,-3.0049,-3.0043,-3.0012,-3.0003,-2.9989,-2.998,-2.9964,-2.9964,-2.9961,-2.9928,-2.9975,-3.0051,-3.0057,-2.9958,-2.9958,-2.9957,0,-3.031,-3.0285,-3.0284,-3.0272,-3.0225,-3.0226,-3.0206,-3.0175,-3.0164,-3.0143,-3.0135,-3.0114,-3.0102,-3.0085,-3.0047,-3.0028,-3.0042,-3.0008,-3.0025,-3.0027,-3.0031,-3.0031,-3.0106,-3.0025,-3.0025,-3.0025,-3.0025,0,-3.0366,-3.0371,-3.0314,-3.0313,-3.0317,-3.0272,-3.0277,-3.0252,-3.0225,-3.0218,-3.0176,-3.017,-3.0119,-3.0108,-3.0077,-3.0074,-3.0069,-3.0053,-3.0045,-3.0057,-3.0059,-3.005,-3.0047,-3.0026,-3.0026,-3.0026,-3.0026,0,-3.0443,-3.0405,-3.0401,-3.0357,-3.0346,-3.035,-3.0312,-3.0309,-3.0281,-3.0273,-3.0268,-3.0223,-3.0207,-3.0167,-3.014,-3.0119,-3.0125,-3.011,-3.0135,-3.013,-3.015,-3.0149,-3.0222,-3.0229,-3.0144,-3.0145,-3.0145,0,-3.0481,-3.0484,-3.044,-3.0433,-3.0415,-3.0404,-3.0392,-3.0348,-3.0337,-3.0303,-3.0305,-3.0285,-3.0268,-3.0244,-3.0209,-3.0188,-3.0172,-3.0199,-3.0168,-3.018,-3.0172,-3.0173,-3.0172,-3.0206,-3.0207,-3.0208,-3.0209,0,-3.0554,-3.0534,-3.052,-3.0498,-3.0485,-3.0466,-3.0444,-3.0441,-3.0391,-3.0381,-3.0364,-3.0351,-3.0323,-3.0305,-3.0278,-3.0257,-3.0224,-3.0218,-3.0221,-3.0234,-3.0249,-3.0241,-3.0153,-3.0217,-3.0216,-3.0216,-3.0215,-3.0215,-3.0612,-3.0612,-3.0581,-3.0565,-3.0544,-3.0525,-3.052,-3.0491,-3.0476,-3.0451,-3.0425,-3.0411,-3.038,-3.0341,-3.0322,-3.031,-3.0293,-3.0298,-3.0299,-3.0301,-3.0306,-3.025,-3.0305,-3.0305,-3.0304,-3.0304,-3.0304,0,-3.0682,-3.066,-3.0646,-3.0617,-3.0605,-3.0575,-3.0549,-3.0541,-3.0529,-3.0503,-3.0487,-3.0467,-3.0448,-3.0411,-3.0388,-3.0386,-3.037,-3.0381,-3.0381,-3.0377,-3.0322,-3.0322,-3.0394,-3.0394,-3.0394,-3.0394,-3.0394,-3.0394,-3.0717,-3.0715,-3.0692,-3.0678,-3.0655,-3.0642,-3.0629,-3.0611,-3.059,-3.057,-3.0555,-3.053,-3.0499,-3.0474,-3.0455,-3.0445,-3.0438,-3.0454,-3.0439,-3.0389,-3.0381,-3.0373,-3.0372,-3.0453,-3.0454,-3.0494,-3.0495,-3.0495]}]]